Weather in Tatishchev Pogost

Russia / Yaroslavl Oblast     57°20′04″N   39°28′12″E
temp.,
°C
wind,
m/s
gust,
m/s
humid.,
%
clouds,
%
prec.,
mm/h
press.,
hPa
HPBL,
m
20 june, sun
sun2000:00+18w34805 0.0 102251
03:00+16wsw33785 0.0 102326
06:00+18wsw24825 0.0 1023118
09:00+23sw33670 0.0 1022386
12:00+27sw35540 0.0 10221163
15:00+29sw34490 0.0 10211570
18:00+28ssw24650 0.0 1020224
21:00+22sw22720 0.0 102014
21 june, mon
mon2100:00+19sw33800 0.0 102040
03:00+18sw34910 0.0 102144
06:00+20sw23855 0.0 1021112
09:00+25sw33705 0.0 1021447
12:00+28ssw336024 0.0 10211061
15:00+28s3357100 0.0 10201247
18:00+25s3673100 0.0 1020187
21:00+22ssw337399 0.0 102025
22 june, tue
tue2200:00+19sw228013 0.0 102119
03:00+17sw228424 0.0 102212
06:00+20ssw248430 0.0 1022111
09:00+25s237170 0.0 1022530
12:00+27s34585 0.0 10211213
15:00+29s44565 0.0 10211295
18:00+27sse47705 0.0 1020367
21:00+23s348083 0.0 102042
23 june, wed
wed2300:00+21sw23833 0.0 102125
03:00+20sw33875 0.0 102131
06:00+22wsw26865 0.0 1021167
09:00+27sw23690 0.0 1021438
12:00+30ssw23560 0.0 10211150
15:00+31s34545 0.0 10201258
18:00+29sse46685 0.0 1020290
21:00+24ssw34750 0.0 101947
24 june, thu
thu2400:00+21wsw34755 0.0 102043
03:00+20wsw34805 0.1 102051
06:00+22wsw23825 0.1 1020108
09:00+27wsw34654 0.1 1020374
12:00+31sw34524 0.0 10201104
15:00+32sw24423 0.0 10192197
18:00+31s34630 0.0 1018172
21:00+25sw45730 0.0 101855